#timestamp,LO_Frequency,Hit,StdDev 
1530900015.3,286046996.5,N
1530900035.1,286046999.2,N
1530900055.9,286046998.4,N
1530900075.7,286046996.5,N
1530900095.6,286046996.5,N
1530900115.4,286046999.0,N
1530900135.2,286046998.2,N
1530900155.1,286046998.6,N
1530900156.0,286046998.6,N
1530900175.8,286046999.2,N
1530900195.7,286046999.6,N
1530900215.5,286046997.3,N
1530900235.3,286046997.2,N
1530900255.2,286046997.9,N
1530900275.0,286046995.0,Y
1530900275.9,286046995.0,P
1530900295.8,286046996.8,N
1530900315.6,286046997.5,N
1530900335.4,286046998.8,N
1530900355.3,286046998.3,N
1530900375.1,286047000.4,N
1530900395.8,286046998.3,N
1530900415.7,286046999.0,N
1530900435.5,286046998.4,N
1530900455.4,286046999.1,N
1530900475.2,286046996.6,N
1530900495.0,286046997.1,N
1530900495.9,286046997.1,N
1530900515.8,286046997.2,N
1530900535.6,286046999.2,N
1530900555.4,286046998.3,N
1530900575.3,286046999.2,N
1530900595.1,286046999.1,N
1530900615.9,286046999.2,N
1530900635.7,286046999.0,N
1530900655.5,286046998.7,N
1530900675.4,286046998.9,N
1530900695.2,286046998.9,N
1530900715.0,286046998.2,N
1530900715.9,286046998.2,N
1530900735.8,286047000.5,N
1530900755.6,286047000.8,N
1530900775.5,286047000.8,N
1530900795.3,286047001.2,N
1530900815.1,286047000.8,N
1530900835.9,286047001.0,N
1530900855.7,286047001.2,N
1530900875.6,286046998.7,N
1530900895.4,286047000.6,N
1530900915.2,286047000.7,N
1530900935.1,286047000.8,N
1530900936.0,286047000.8,N
1530900955.8,286046998.5,N
1530900975.6,286046998.8,N
1530900995.5,286046998.4,N
1530901015.3,286046998.6,N
1530901035.2,286047001.0,N
1530901055.0,286047001.2,N
1530901055.9,286047001.2,N
1530901075.7,286047000.7,N
1530901095.6,286047000.6,N
1530901115.4,286047000.4,N
1530901135.3,286047000.5,N
1530901155.1,286047000.8,N
1530901156.0,286047000.8,N
1530901175.8,286046998.1,N
1530901195.7,286047000.6,N
1530901215.5,286046999.8,N
1530901235.3,286046999.8,N
1530901255.2,286047002.1,N
1530901275.0,286047002.2,N
1530901275.9,286047002.2,N
1530901295.8,286047000.0,N
1530901315.6,286047001.9,N
1530901335.5,286047001.6,N
1530901355.3,286047002.0,N
1530901375.1,286047001.7,N
1530901395.9,286047001.5,N
1530901415.7,286046999.9,N
1530901435.5,286047002.0,N
1530901455.4,286047001.6,N
1530901475.2,286047002.8,N
1530901495.1,286047000.0,N
1530901496.0,286047000.0,N
1530901515.8,286046999.7,N
1530901535.6,286046999.8,N
1530901555.5,286047000.4,N
1530901575.3,286047000.5,N
1530901595.2,286047000.4,N
1530901615.9,286046999.7,N
1530901635.7,286047002.1,N
1530901655.6,286047002.0,N
1530901675.4,286047001.9,N
1530901695.2,286047002.0,N
1530901715.1,286047002.1,N
1530901716.0,286047002.1,N
1530901735.8,286047002.0,N
1530901755.7,286047002.1,N
1530901775.5,286047002.8,N
1530901795.3,286047004.3,Y
1530901815.2,286047002.6,P
1530901835.0,286047002.3,P
1530901835.9,286047002.3,P
1530901855.8,286047002.3,Y
1530901875.6,286047001.0,P
1530901895.4,286047001.0,N
1530901915.3,286046998.6,N
1530901935.1,286046998.6,N
1530901955.8,286046998.3,N
1530901975.1,286046998.6,N
1530901976.0,286046998.6,N
1530901995.8,286047001.2,N
1530902015.7,286047000.8,N
1530902035.5,286047000.9,N
1530902055.4,286047000.7,N
1530902075.2,286047000.3,N
1530902095.0,286047000.8,N
1530902095.9,286047000.8,N
1530902115.8,286047000.0,N
1530902135.6,286047000.9,N
1530902155.4,286047001.1,N
1530902175.3,286047000.5,N
1530902195.1,286046999.9,N
1530902215.9,286046998.4,N
1530902235.7,286046998.8,N
1530902255.5,286046998.4,N
1530902275.4,286046998.6,N
1530902295.2,286047001.0,N
1530902315.0,286046999.7,N
1530902315.9,286046999.7,N
1530902335.8,286047002.8,N
1530902355.6,286046999.7,N
1530902375.5,286047002.3,N
1530902395.3,286047002.8,N
1530902415.1,286046999.9,N
1530902435.9,286046998.1,N
1530902455.7,286047001.2,N
1530902475.5,286046998.2,N
1530902495.4,286047001.1,N
1530902515.2,286046998.1,N
1530902535.0,286047001.1,N
1530902536.0,286047001.1,N
1530902555.8,286047000.8,N
1530902575.6,286047000.8,N
1530902595.5,286047000.6,N
1530902615.3,286047001.0,N
1530902635.2,286047002.4,N
1530902655.9,286047000.3,N
1530902675.7,286047000.0,N
1530902695.6,286046999.8,N
1530902715.4,286047000.2,N
1530902735.2,286047002.7,N
1530902755.1,286047002.1,N
1530902756.0,286047002.1,N
1530902775.8,286047004.3,Y
1530902795.7,286047002.6,P
1530902815.5,286047002.0,N
1530902835.3,286047001.6,N
1530902855.2,286047002.2,N
1530902875.0,286047001.9,N
1530902875.9,286047001.9,N
1530902895.8,286047002.6,Y
1530902915.6,286046997.0,P
1530902935.4,286046999.3,N
1530902955.3,286046999.6,N
1530902975.1,286046996.9,N
1530902995.9,286046996.9,N
1530903015.7,286046997.2,N
1530903035.5,286046998.0,N
1530903055.4,286046997.5,N
1530903075.2,286046996.6,N
1530903095.0,286046999.4,N
1530903095.9,286046999.4,N
1530903115.8,286046997.7,N
1530903135.6,286046999.3,N
1530903155.5,286046998.4,N
1530903175.3,286046998.1,N
1530903195.1,286047000.3,N
1530903215.9,286047000.2,N
1530903235.7,286047000.0,N
1530903255.5,286047000.0,N
1530903275.4,286047000.7,N
1530903295.2,286047000.6,N
1530903315.1,286047001.1,N
1530903316.0,286047001.1,N
1530903335.8,286047001.0,N
1530903355.6,286047000.7,N
1530903375.5,286046999.9,N
1530903395.3,286047000.4,N
1530903415.1,286046999.8,N
1530903435.9,286046999.7,N
1530903455.7,286047000.3,N
1530903475.6,286046998.4,N
1530903495.4,286046997.3,N
1530903515.2,286046999.5,N
1530903535.1,286046998.2,N
1530903536.0,286046998.2,N
1530903555.8,286046998.6,N
1530903575.6,286046998.4,N
1530903595.5,286046998.5,N
